Hourly Data Report for September 04, 2020

OTTAWA INTL A
ONTARIO
Current Station Operator: NAVCAN

45°19'00.000" N
75°40'00.000" W
114.90 m
6106001
71628
YOW

Download Data

Hourly Data (September 2020)
Hourly Data Report for September 4, 2020
TIME Temp Definition
°C
Dew Point Definition
°C
Rel Hum Definition
%
Wind Dir Definition
10's deg

Wind Spd Definition
km/h
Visibility Definition
km
Stn Press Definition
kPa
Hmdx Definition


Wind Chill Definition


Weather Definition


00:00 17.3 15.5 89 23 22 24.1 98.94     LegendNANA
01:00 16.3 15.1 93 25 17 24.1 99.00     Mainly Clear
02:00 14.7 10.3 75 27 23 24.1 99.12     LegendNANA
03:00 12.9 10.5 85 25 16 24.1 99.27     LegendNANA
04:00 12.1 9.4 84 25 14 24.1 99.37     Clear
05:00 11.4 9.0 85 24 14 24.1 99.48     LegendNANA
06:00 11.4 9.4 87 23 10 24.1 99.57     LegendNANA
07:00 13.1 9.7 80 24 14 24.1 99.64     Clear
08:00 15.6 10.8 73 24 14 24.1 99.69     LegendNANA
09:00 17.5 11.4 67 23 22 24.1 99.70     LegendNANA
10:00 19.0 10.2 56 24 24 24.1 99.71     Mainly Clear
11:00 19.1 8.8 51 27 27 24.1 99.74     LegendNANA
12:00 19.1 9.1 52 25 28 24.1 99.74     LegendNANA
13:00 19.0 9.8 55 25 21 24.1 99.73     Mostly Cloudy
14:00 18.6 12.6 68 24 19 24.1 99.76     LegendNANA
15:00 17.4 11.4 67 26 24 24.1 99.80     Rain Showers
16:00 18.6 9.4 55 26 30 24.1 99.82     Mostly Cloudy
17:00 17.9 10.1 60 25 18 24.1 99.88     LegendNANA
18:00 17.1 9.9 62 25 17 24.1 99.90     LegendNANA
19:00 14.9 9.9 72 22 11 24.1 99.95     Mainly Clear
20:00 14.4 9.2 71 24 13 24.1 100.02     LegendNANA
21:00 13.2 9.5 78 25 12 24.1 100.11     LegendNANA
22:00 12.4 8.6 78 25 12 24.1 100.18     Mainly Clear
23:00 11.5 8.2 80 27 9 24.1 100.24     LegendNANA

Notes on Data Quality.

Legend

  • E = Estimated
  • M = Missing
  • NA = Not Available*
  • [empty] = Indicates an unobserved value
Date modified: